[[{"header":{"parameterUnit":"m.s-1","parameterCategory":1,"la1":30.2992,"la2":30.254,"lo1":-89.0895,"lo2":-89.0443,"dy":0.0025,"dx":0.0025,"nx":19,"ny":19,"refTime":"2026-03-31T21:00:00:Z","depth":0,"parameterNumber":2,"parameterNumberName":"U-component_of_WINDS"},"data":[0,0,0,-3.3857,-3.386,-3.4048,-3.4049,-3.4279,-3.4281,0,0,0,0,0,0,0,0,0,0,0,-3.3793,-3.3795,-3.3856,-3.3861,-3.4048,-3.4049,-3.4279,-3.4281,0,0,0,0,0,0,0,0,0,0,0,-3.3793,-3.3794,-3.3796,-3.3861,-3.4048,-3.4049,-3.4278,-3.414,0,0,0,0,0,0,0,0,0,0,-3.396,-3.3894,-3.3794,-3.3796,-3.3862,-3.4048,-3.4049,-3.4134,-3.4149,-3.4189,0,-3.4222,0,-3.4255,-3.4295,-3.4296,0,0,0,-3.3867,-3.3881,-3.3939,-3.3796,-3.3864,-3.4048,-3.3965,-3.4142,-3.4159,-3.4209,-3.4225,-3.4234,-3.4259,-3.4297,-3.4298,-3.4507,-3.4508,0,0,-3.3856,-3.3823,-3.3927,-3.3949,-3.3918,-3.3959,-3.3971,-3.4153,-3.4169,-3.4226,-3.4239,-3.4262,-3.4298,-3.43,-3.4507,-3.4507,0,0,0,-3.3822,-3.3816,-3.3869,-3.3939,-3.3974,-3.3964,-3.3978,-3.4161,-3.4181,-3.4242,-3.4265,-3.43,-3.4302,-3.4506,-3.4507,-3.4508,0,0,0,-3.3816,-3.3796,-3.3864,-3.3846,-3.397,-3.4069,-3.3981,-3.4168,-3.419,-3.4264,-3.43,-3.4304,-3.4505,-3.4506,-3.4506,-3.4514,0,0,0,-3.3784,-3.3792,-3.3817,-3.3844,-3.3923,-3.4067,-3.4098,-3.4173,-3.4204,-3.4296,-3.4305,-3.4505,-3.4506,-3.4505,-3.4511,-3.4558,0,0,0,-3.3739,-3.3816,-3.3816,-3.3911,-3.3921,-3.4067,-3.4097,-3.4208,-3.4287,-3.4301,-3.4505,-3.4507,-3.4504,-3.451,-3.4556,-3.459,-3.4602,0,0,-3.3817,-3.3824,-3.3882,-3.3888,-3.4025,-3.4041,-3.4179,-3.4283,-3.4323,-3.4444,-3.445,-3.4507,-3.4511,-3.4558,-3.468,-3.4689,0,0,0,-3.3896,-3.3937,-3.3981,-3.4055,-3.4137,-3.4208,-3.4295,-3.4335,-3.4439,-3.4378,-3.4539,-3.4542,-3.4571,-3.4589,-3.4596,-3.4623,-3.4514,-3.4514,-3.4514,-3.3957,-3.4004,-3.4104,-3.4173,-3.4245,-3.4336,-3.4398,-3.4467,-3.4493,-3.4531,-3.4566,-3.4634,-3.4654,-3.466,-3.4687,-3.4589,-3.4589,-3.4589,-3.4589,-3.4075,-3.414,-3.4174,-3.4283,-3.4333,-3.4425,-3.4516,-3.4532,-3.4626,-3.4611,-3.4639,-3.4617,-3.4668,-3.4694,-3.459,-3.459,-3.459,-3.459,-3.459,-3.4119,-3.4158,-3.4205,-3.4317,-3.44,-3.4469,-3.4557,-3.46,-3.4641,-3.4669,-3.4711,-3.4711,-3.4715,-3.4686,-3.4686,-3.4687,-3.4687,-3.4687,-3.4687,-3.4145,-3.4197,-3.4266,-3.436,-3.4414,-3.4491,-3.4584,-3.4638,-3.471,-3.4734,-3.4735,-3.4757,-3.4665,-3.4639,-3.4691,-3.469,-3.469,-3.469,-3.4689,-3.4243,-3.4228,-3.4333,-3.4387,-3.4502,-3.4581,-3.4636,-3.4744,-3.4796,-3.4838,-3.4856,-3.4781,-3.4791,-3.4785,-3.4765,-3.4846,-3.4846,-3.4846,-3.4846,-3.4279,-3.4288,-3.4406,-3.449,-3.4577,-3.4637,-3.4756,-3.483,-3.4905,-3.494,-3.4935,-3.4912,-3.4905,-3.4919,-3.4911,-3.4892,-3.5004,-3.5004,-3.5004,-3.4341,-3.4362,-3.4454,-3.4525,-3.4619,-3.4699,-3.4813,-3.4908,-3.499,-3.5012,-3.4969,-3.4962,-3.4925,-3.4911,-3.4928,-3.4914,-3.4881,0,0]},{"header":{"parameterUnit":"m.s-1","parameterCategory":1,"la1":30.2992,"la2":30.254,"lo1":-89.0895,"lo2":-89.0443,"dy":0.0025,"dx":0.0025,"nx":19,"ny":19,"refTime":"2026-03-31T21:00:00:Z","depth":0,"parameterNumber":3,"parameterNumberName":"V-component_of_WINDS"},"data":[0,0,0,3.599,3.5992,3.6085,3.6086,3.6211,3.6212,0,0,0,0,0,0,0,0,0,0,0,3.5967,3.5968,3.599,3.5993,3.6085,3.6086,3.621,3.6212,0,0,0,0,0,0,0,0,0,0,0,3.5966,3.5967,3.5969,3.5993,3.6085,3.6086,3.621,3.6138,0,0,0,0,0,0,0,0,0,0,3.6047,3.6028,3.5967,3.5969,3.5994,3.6085,3.6086,3.6134,3.6142,3.6171,0,3.6198,0,3.6207,3.6221,3.6221,0,0,0,3.599,3.6022,3.6043,3.5969,3.5995,3.6085,3.6043,3.6139,3.6148,3.6182,3.62,3.6204,3.6209,3.6221,3.6222,3.6402,3.6403,0,0,3.5984,3.5985,3.6037,3.605,3.6036,3.604,3.6046,3.6144,3.6163,3.62,3.6207,3.6211,3.6222,3.6223,3.6401,3.6402,0,0,0,3.5972,3.5982,3.6001,3.6045,3.6061,3.6043,3.6049,3.6159,3.6165,3.6209,3.6213,3.6223,3.6225,3.64,3.6402,3.6452,0,0,0,3.5969,3.5974,3.5999,3.6,3.6059,3.6111,3.6062,3.6158,3.617,3.6212,3.6223,3.6226,3.6399,3.6401,3.6448,3.6476,0,0,0,3.5959,3.5973,3.5988,3.6,3.604,3.611,3.6121,3.6161,3.6172,3.6221,3.6226,3.6398,3.6401,3.6445,3.647,3.6525,0,0,0,3.5949,3.603,3.5989,3.6081,3.604,3.614,3.6121,3.6196,3.6243,3.6224,3.6399,3.6401,3.6444,3.6467,3.6521,3.6571,3.6591,0,0,3.6052,3.6042,3.6097,3.6063,3.6171,3.6126,3.6242,3.6284,3.6288,3.6364,3.6368,3.645,3.647,3.6524,3.6706,3.6723,0,0,0,3.6129,3.6169,3.6197,3.6244,3.6279,3.6312,3.6337,3.6353,3.6418,3.6327,3.6484,3.6496,3.6527,3.6551,3.6565,3.6593,3.6412,3.6412,3.6412,3.6275,3.6276,3.6367,3.638,3.6426,3.6452,3.6489,3.6515,3.6502,3.6539,3.6562,3.6672,3.67,3.6711,3.674,3.6588,3.6588,3.6588,3.6588,3.6425,3.6482,3.6465,3.6546,3.6548,3.6617,3.6646,3.6635,3.6699,3.6655,3.6683,3.6635,3.6729,3.6754,3.6592,3.6591,3.6591,3.659,3.659,3.6521,3.6548,3.6568,3.6637,3.669,3.6701,3.6765,3.6763,3.6762,3.679,3.6814,3.6814,3.6813,3.6802,3.6802,3.6802,3.6803,3.6803,3.6803,3.6613,3.6633,3.6687,3.6734,3.6765,3.6805,3.6834,3.6865,3.6898,3.6892,3.6892,3.6876,3.6738,3.6703,3.6809,3.6808,3.6807,3.6807,3.6806,3.6766,3.6732,3.6815,3.6846,3.6902,3.6956,3.6954,3.7017,3.7042,3.7074,3.7053,3.695,3.694,3.6929,3.69,3.7051,3.7051,3.7051,3.7051,3.6847,3.6842,3.6929,3.6979,3.7028,3.7036,3.7132,3.7156,3.7175,3.7191,3.7169,3.7131,3.712,3.7117,3.7102,3.7075,3.7267,3.7267,3.7267,3.6942,3.6942,3.7023,3.7043,3.7087,3.7125,3.7216,3.7275,3.729,3.7276,3.7204,3.7195,3.7134,3.7113,3.7097,3.7074,3.7025,0,0]}]]